Lid_Strength_Index
10 9 9 9 10 9 11 10 13 11 11 8 7 6 5 4 4 4 4 4 3 3 3 3 3 3 3 2 1 1 1 1 1 0 0 -0 -0 -0 -0 -0 -0 -0 -0 -0
12 10 9 11 9 9 9 9 9 9 10 6 5 5 5 5 5 5 5 4 3 3 3 3 4 4 3 2 1 1 1 1 1 0 1 1 1 0 1 1 1 1 1 1
15 11 12 16 11 9 9 8 8 12 8 6 6 6 5 5 4 4 4 3 3 3 4 4 3 3 3 2 2 2 2 2 1 1 1 1 1 2 3 3 2 2 3 3
15 13 20 11 7 7 9 8 7 7 6 6 5 5 4 4 4 4 4 3 3 4 4 3 2 2 2 3 3 2 2 2 3 3 3 3 4 6 5 5 7 7 6 6
17 17 12 10 8 8 9 9 6 7 6 6 5 4 5 3 3 3 3 3 3 3 3 3 3 3 4 5 5 6 8 8 9 8 9 9 10 9 9 8 9 9 8 8
16 19 19 11 7 5 6 12 6 6 6 6 5 9 7 3 3 4 3 3 3 3 3 4 4 4 8 11 10 11 10 10 10 10 10 10 9 9 9 8 9 7 9 8
16 17 13 7 7 6 13 11 6 5 5 5 6 5 4 3 4 3 4 4 3 4 4 4 4 5 9 10 11 10 11 11 10 9 9 9 9 8 9 9 9 9 9 9
15 17 18 6 7 10 7 5 6 6 6 5 5 5 5 4 4 4 4 4 4 4 4 4 5 7 10 11 11 11 11 11 10 9 9 8 8 8 8 9 9 9 9 9
12 12 7 5 6 5 6 5 6 6 6 5 5 5 6 5 4 4 4 4 3 4 4 5 5 5 6 7 8 9 9 10 9 8 8 7 8 8 8 7 8 8 8 8
10 8 7 6 6 5 6 6 6 5 6 5 5 7 11 9 5 4 4 4 4 4 4 4 4 3 3 4 5 8 7 8 8 8 8 7 7 7 6 7 7 7 8 8
10 7 7 6 6 6 7 6 7 6 6 6 6 6 5 5 5 4 4 4 4 4 4 3 3 3 2 3 5 6 6 7 7 7 8 7 7 7 7 7 7 8 8 8
10 6 7 7 6 6 7 7 7 7 7 6 6 6 5 5 5 5 4 4 4 4 3 3 2 2 2 2 4 5 6 6 6 7 7 7 7 8 9 9 9 9 8 7
8 6 6 6 7 6 7 7 7 7 7 7 7 6 6 6 6 6 5 5 4 3 3 2 2 2 1 2 2 3 4 4 5 6 7 7 7 8 10 10 10 9 9 8
7 8 9 8 9 8 8 7 8 7 7 7 7 7 7 7 6 6 6 5 4 4 2 2 5 5 6 4 5 5 4 6 5 6 6 6 7 7 7 9 9 10 10 9
9 9 9 8 8 8 8 8 8 8 8 7 7 7 7 7 6 5 4 4 3 3 2 5 6 6 6 6 5 6 5 6 6 6 7 7 7 7 8 8 9 10 10 10
9 9 9 9 9 8 8 8 8 8 7 7 7 6 6 5 5 4 4 4 4 4 2 6 6 7 6 6 5 5 5 7 6 6 7 8 7 7 8 9 10 10 10 10
9 9 8 8 8 7 7 7 7 7 6 6 6 5 4 4 4 3 3 4 6 7 7 7 7 7 7 6 5 5 6 6 8 8 8 7 7 7 8 9 9 9 9 8
8 8 8 8 8 7 6 5 5 6 5 5 5 6 7 7 6 6 7 8 8 8 8 8 7 7 7 6 6 6 7 8 8 8 7 7 7 8 8 9 9 9 8 9
8 9 9 8 7 6 5 5 5 4 5 6 7 7 8 8 7 7 8 8 8 8 8 8 9 8 7 7 7 7 8 8 8 8 7 8 8 8 8 8 8 8 8 9
8 8 8 8 7 6 5 6 6 5 5 7 8 8 8 8 8 8 8 8 7 6 7 8 8 8 8 9 9 8 8 8 8 8 8 8 8 8 8 8 8 8 8 9
8 8 8 8 8 8 8 7 8 7 7 8 8 8 8 8 8 8 8 8 8 7 7 8 7 8 7 8 8 7 8 8 8 9 8 8 8 8 8 8 8 9 9 8
7 8 8 8 8 8 8 8 7 8 8 8 8 8 8 8 8 8 8 6 7 8 7 7 7 8 7 8 7 7 8 8 9 9 8 8 8 8 9 9 9 9 9 8
7 7 7 8 8 8 8 8 8 7 7 8 8 8 7 6 6 7 7 6 6 7 7 7 8 8 9 7 7 7 7 8 8 8 8 8 8 8 8 8 9 9 9 9
7 7 7 7 7 7 8 8 7 7 7 8 8 7 7 7 6 5 5 7 8 8 6 7 8 8 8 7 7 7 7 8 8 8 8 8 8 8 8 8 9 8 9 9
7 7 7 7 7 7 7 7 7 8 8 7 7 7 6 5 6 6 6 6 8 7 7 8 8 8 7 7 6 7 7 7 7 7 7 8 8 8 8 8 8 9 8 9
7 6 6 6 6 6 6 6 7 7 7 7 7 6 6 5 6 6 6 7 7 7 7 8 8 7 7 7 7 6 7 7 7 7 8 8 8 8 8 8 8 8 9 8
6 6 6 6 6 6 6 6 7 7 7 6 7 6 6 6 6 6 7 6 7 7 8 8 7 8 7 7 7 6 6 7 7 7 7 7 8 7 8 8 8 8 8 8